Regional Weather Roundup
Issued by NWS

Home | Current Version | Previous Version | Text Only | Print | Product List | Glossary Off
Versions: 1 2 3 4 5 6 7 8 9 10 11 12 13 14 15 16 17 18 19 20 21 22 23 24 25 26 27 28 29 30 31 32 33 34 35 36 37 38 39 40 41 42 43 44 45 46 47 48 49

000
ASUS43 KDMX 300007
RWRIA

WEATHER ROUNDUP FOR IOWA
NATIONAL WEATHER SERVICE DES MOINES IA
700 PM CDT MON SEP 29 2014

NOTE: "FAIR" INDICATES FEW OR NO CLOUDS BELOW 12,000 FEET WITH NO
SIGNIFICANT WEATHER AND/OR OBSTRUCTIONS TO VISIBILITY.

* - THESE STATIONS ARE NOT NWS STATIONS...THUS NOT UNDER NWS
QUALITY CONTROL.  THEY ALSO DO NOT REPORT WEATHER SUCH
AS PRECIPITATION OR FOG.

IAZ001>003-012>014-020>022-031>034-043>046-300100-
   NORTHWEST IOWA

CITY           SKY/WX    TMP DP  RH WIND       PRES   REMARKS
CARROLL *      PTCLDY    70  63  78 NE10      29.98S
CHEROKEE *     CLEAR     63  60  90 NE5       30.00F
DENISON *      CLEAR     72  63  73 NE7       29.95F
LE MARS *      CLEAR     68  61  77 NE12      29.98F
ORANGE CITY *  CLEAR     66  55  68 E8        30.00F
SHELDON *      CLEAR     63  57  82 E9        30.00F
SIOUX CITY     CLEAR     74  62  66 E8        29.95F
6HR MIN TEMP:  74; 6HR MAX TEMP:  81;

SPENCER        CLOUDY    63  56  78 E9        30.03S
6HR MIN TEMP:  63; 6HR MAX TEMP:  67;

STORM LAKE *   CLEAR     63  59  88 NE9       30.02F
$$

IAZ055>058-069>071-079>083-090>094-300100-
   SOUTHWEST IOWA

CITY           SKY/WX    TMP DP  RH WIND       PRES   REMARKS
ATLANTIC *     CLOUDY    79  59  50 SE3       29.95S HX  80
AUDUBON *      CLEAR     72  59  64 CALM      29.98F
CLARINDA *     CLEAR     73  59  60 CALM      29.97S
COUNCIL BLFS * CLEAR     77  61  57 SE3       29.94F
CRESTON *      CLEAR     75  59  57 S5        29.98S
HARLAN  *      PTCLDY    73  64  73 VRB5      29.99F
LAMONI         CLEAR     77  55  46 CALM      29.98S
6HR MIN TEMP:  77; 6HR MAX TEMP:  83;

RED OAK *      HAZE      77  59  53 SE5       29.95F VSB 1
SHENANDOAH *   CLEAR     75  57  53 SE5       29.95S
$$

IAZ047>049-059>061-072>074-084-300100-
   CENTRAL IOWA

CITY           SKY/WX    TMP DP  RH WIND       PRES   REMARKS
AMES           MOCLDY    72  62  71 N10       29.97S
6HR MIN TEMP:  72; 6HR MAX TEMP:  82;

ANKENY *       CLEAR     72  64  78 CALM      29.96S
CHARITON *     CLEAR     77  61  57 CALM      29.97S
DES MOINES     MOCLDY    78  63  59 NE3       29.96S HX  80
6HR MIN TEMP:  77; 6HR MAX TEMP:  85;

GRINNELL*      CLEAR     72  61  68 SW3       29.97S
KNOXVILLE *    CLOUDY    77  59  53 CALM      29.95F
MARSHALLTOWN   CLEAR     71  61  70 N13       29.97R
6HR MIN TEMP:  71; 6HR MAX TEMP:  81;

PELLA *        PTCLDY    74  60  61 NW5       29.97F
PERRY *        CLOUDY    74  62  67 NE7       29.97S
$$

IAZ004>006-015-016-023>025-035-036-300100-
   NORTH CENTRAL IOWA

CITY           SKY/WX    TMP DP  RH WIND       PRES   REMARKS
ALGONA *       CLEAR     63  57  82 NE6       30.03S
CLARION *      CLOUDY    64  59  82 VRB7G15   30.02S
ESTHERVILLE    CLEAR     59  55  87 NE5       30.03F
6HR MIN TEMP:  59; 6HR MAX TEMP:  63;

FORT DODGE *   CLOUDY    63  57  82 NE8       30.02S
MASON CITY     CLEAR     61  54  77 NE7       30.05S
6HR MIN TEMP:  61; 6HR MAX TEMP:  65;

FOREST CITY *  CLEAR     63  54  72 NE8       30.03S
IOWA FALLS *     N/A     64  59  82 N8        30.01F
$$

IAZ007>011-017>019-026>030-037>042-050>054-066-300100-
   NORTHEAST IOWA

CITY           SKY/WX    TMP DP  RH WIND       PRES   REMARKS
CHARLES CITY * CLEAR     61  54  77 NE8G14    30.03S
CLINTON *      CLEAR     73  55  53 W5        29.96S
DECORAH *      CLOUDY    55  50  82 VRB7G16   30.04R
MONTICELLO *   PTCLDY    72  63  73 N9        29.96R
OELWEIN *      CLEAR     64  57  77 NE10      30.00S
WATERLOO       MOCLDY    66  58  75 N9        29.99R
6HR MIN TEMP:  66; 6HR MAX TEMP:  83;

$$

IAZ064-065-067-068-078-300100-
   EAST CENTRAL IOWA

CITY           SKY/WX    TMP DP  RH WIND       PRES   REMARKS
IOWA CITY      CLEAR     73  61  65 W5        29.95S
6HR MIN TEMP:  73; 6HR MAX TEMP:  83;

MT. PLEASANT * CLEAR     74  56  53 W5        29.95F
MUSCATINE *    PTCLDY    77  59  53 SW3       29.94S
$$

IAZ062-063-075>077-085>089-095>099-300100-
   SOUTHEAST IOWA

CITY           SKY/WX    TMP DP  RH WIND       PRES   REMARKS
BURLINGTON     HAZE      71  61  70 SW3       29.95F VSB 3/4
6HR MIN TEMP:  72; 6HR MAX TEMP:  84;

FAIRFIELD *    CLEAR     75  59  57 SW3       29.96S
FORT MADISON * CLEAR     77  57  50 CALM      29.97S
KEOKUK *       CLEAR     73  63  68 CALM      29.95F
OSKALOOSA *      N/A     73  60  63 W6        29.97S
CENTERVILLE *  CLEAR     72  63  73 CALM      29.99S
OTTUMWA        CLEAR     74  60  61 SW5       29.96S
6HR MIN TEMP:  74; 6HR MAX TEMP:  83;

WASHINGTON *   CLEAR     75  59  57 SW6       29.95S
$$

ABBREVIATIONS USED IN REMARKS
   TC - TEMPERATURES IN CELSIUS
  WCI - WIND CHILL INDEX
   HX - HEAT INDEX
  VSB - VISIBILITY
$$



USA.gov is the U.S. government's official web portal to all federal, state and local government web resources and services.